ProjectID,Date,Electric Generation,Electric Utility Import,Facility Electric Load
,YYYY-MM-DD,kW,kW,kW
433,2017-03-01,0.0,,0.0
433,2017-03-02,0.0,,0.0
433,2017-03-03,0.0,,0.0
433,2017-03-04,0.0,,0.0
433,2017-03-05,0.0,,0.0
433,2017-03-06,0.0,,0.0
433,2017-03-07,0.0,,0.0
433,2017-03-08,0.0,,0.0
433,2017-03-09,103.06874999999998,,103.06874999999998
433,2017-03-10,55.17083333333333,,55.17083333333333
433,2017-03-11,95.23879166666667,,95.23879166666667
433,2017-03-12,121.223,,121.223
433,2017-03-13,103.362125,,103.362125
433,2017-03-14,0.17854166666666668,,0.17854166666666668
433,2017-03-15,1.3712083333333334,,1.3712083333333334
433,2017-03-16,3.046458333333334,,3.046458333333334
433,2017-03-17,4.4433750000000005,,4.4433750000000005
433,2017-03-18,4.7655416666666675,,4.7655416666666675
433,2017-03-19,13.631375000000006,,13.631375000000006
433,2017-03-20,27.92383333333333,,27.92383333333333
433,2017-03-21,43.35162500000001,,43.35162500000001
433,2017-03-22,103.30166666666668,,103.30166666666668
433,2017-03-23,109.97704166666666,,109.97704166666666
433,2017-03-24,16.306375000000006,,16.306375000000006
433,2017-03-25,18.555000000000003,,18.555000000000003
433,2017-03-26,27.551416666666658,,27.551416666666658
433,2017-03-27,30.604416666666662,,30.604416666666662
433,2017-03-28,35.02825,,35.02825
433,2017-03-29,67.29291666666667,,67.29291666666667
433,2017-03-30,115.23591666666665,,115.23591666666665
433,2017-03-31,1.3970416666666665,,1.3970416666666665
433,2017-04-01,49.47008333333334,,49.47008333333334
433,2017-04-02,135.32375,,135.32375
433,2017-04-03,97.73658333333333,,97.73658333333333
433,2017-04-04,18.027416666666664,,18.027416666666664
433,2017-04-05,63.286750000000005,,63.286750000000005
433,2017-04-06,11.360916666666663,,11.360916666666663
433,2017-04-07,47.426208333333335,,47.426208333333335
433,2017-04-08,94.13508333333334,,94.13508333333334
433,2017-04-09,138.65375,,138.65375
433,2017-04-10,113.62337499999995,,113.62337499999995
433,2017-04-11,118.1629166666666,,118.1629166666666
433,2017-04-12,68.93470833333333,,68.93470833333333
433,2017-04-13,104.87074999999994,,104.87074999999994
433,2017-04-14,141.4272083333333,,141.4272083333333
433,2017-04-15,114.895375,,114.895375
433,2017-04-16,99.51266666666665,,99.51266666666665
433,2017-04-17,130.13020833333334,,130.13020833333334
433,2017-04-18,134.07483333333334,,134.07483333333334
433,2017-04-19,57.10183333333333,,57.10183333333333
433,2017-04-20,78.69170833333334,,78.69170833333334
433,2017-04-21,30.26958333333333,,30.26958333333333
433,2017-04-22,65.46391666666668,,65.46391666666668
433,2017-04-23,145.11208333333335,,145.11208333333335
433,2017-04-24,139.3138333333333,,139.3138333333333
433,2017-04-25,35.228291666666664,,35.228291666666664
433,2017-04-26,78.28616666666667,,78.28616666666667
433,2017-04-27,83.75270833333333,,83.75270833333333
433,2017-04-28,121.99062500000004,,121.99062500000004
433,2017-04-29,58.560249999999996,,58.560249999999996
433,2017-04-30,55.533958333333345,,55.533958333333345
433,2017-05-01,111.4955,,111.4955
433,2017-05-02,44.42520833333334,,44.42520833333334
433,2017-05-03,95.87541666666668,,95.87541666666668
433,2017-05-04,100.85920833333337,,100.85920833333337
433,2017-05-05,19.031875000000003,,19.031875000000003
433,2017-05-06,60.97070833333333,,60.97070833333333
433,2017-05-07,67.26270833333332,,67.26270833333332
433,2017-05-08,92.522875,,92.522875
433,2017-05-09,58.18208333333334,,58.18208333333334
433,2017-05-10,97.41045833333335,,97.41045833333335
433,2017-05-11,145.78591666666668,,145.78591666666668
433,2017-05-12,143.16470833333338,,143.16470833333338
433,2017-05-13,30.8005,,30.8005
433,2017-05-14,95.64425000000001,,95.64425000000001
433,2017-05-15,105.72916666666664,,105.72916666666664
433,2017-05-16,148.77800000000002,,148.77800000000002
433,2017-05-17,141.99604166666668,,141.99604166666668
433,2017-05-18,137.03841666666668,,137.03841666666668
433,2017-05-19,140.336625,,140.336625
433,2017-05-20,156.849625,,156.849625
433,2017-05-21,97.12891666666667,,97.12891666666667
433,2017-05-22,49.278708333333334,,49.278708333333334
433,2017-05-23,118.69791666666667,,118.69791666666667
433,2017-05-24,111.094375,,111.094375
433,2017-05-25,32.929874999999996,,32.929874999999996
433,2017-05-26,33.13408333333333,,33.13408333333333
433,2017-05-27,121.38487500000002,,121.38487500000002
433,2017-05-28,91.83470833333335,,91.83470833333335
433,2017-05-29,29.91462499999999,,29.91462499999999
433,2017-05-30,22.460958333333334,,22.460958333333334
433,2017-05-31,97.88599999999998,,97.88599999999998
433,2017-06-01,135.687,,135.687
433,2017-06-02,110.35683333333334,,110.35683333333334
433,2017-06-03,108.47333333333334,,108.47333333333334
433,2017-06-04,61.411541666666686,,61.411541666666686
433,2017-06-05,36.918083333333335,,36.918083333333335
433,2017-06-06,28.944,,28.944
433,2017-06-07,149.09370833333332,,149.09370833333332
433,2017-06-08,126.72854166666667,,126.72854166666667
433,2017-06-09,117.35100000000001,,117.35100000000001
433,2017-06-10,128.72600000000003,,128.72600000000003
433,2017-06-11,141.25716666666668,,141.25716666666668
433,2017-06-12,144.192125,,144.192125
433,2017-06-13,113.09116666666667,,113.09116666666667
433,2017-06-14,153.78912499999998,,153.78912499999998
433,2017-06-15,120.55675000000002,,120.55675000000002
433,2017-06-16,24.63491666666666,,24.63491666666666
433,2017-06-17,116.32504166666668,,116.32504166666668
433,2017-06-18,120.25520833333333,,120.25520833333333
433,2017-06-19,64.29558333333334,,64.29558333333334
433,2017-06-20,124.94216666666667,,124.94216666666667
433,2017-06-21,129.6844166666667,,129.6844166666667
433,2017-06-22,133.68820833333334,,133.68820833333334
433,2017-06-23,79.86537500000001,,79.86537500000001
433,2017-06-24,132.616,,132.616
433,2017-06-25,120.75725000000001,,120.75725000000001
433,2017-06-26,110.31454166666667,,110.31454166666667
433,2017-06-27,95.99620833333334,,95.99620833333334
433,2017-06-28,128.416125,,128.416125
433,2017-06-29,85.85162500000001,,85.85162500000001
433,2017-06-30,77.24820833333334,,77.24820833333334
433,2017-07-01,104.95904166666668,,104.95904166666668
433,2017-07-02,145.00983333333332,,145.00983333333332
433,2017-07-03,157.14275,,157.14275
433,2017-07-04,139.46170833333335,,139.46170833333335
433,2017-07-05,161.09645833333335,,161.09645833333335
433,2017-07-06,86.13554166666667,,86.13554166666667
433,2017-07-07,107.94670833333333,,107.94670833333333
433,2017-07-08,82.07691666666666,,82.07691666666666
433,2017-07-09,143.75929166666668,,143.75929166666668
433,2017-07-10,114.85700000000001,,114.85700000000001
433,2017-07-11,112.77095833333334,,112.77095833333334
433,2017-07-12,84.30083333333334,,84.30083333333334
433,2017-07-13,71.44283333333334,,71.44283333333334
433,2017-07-14,42.587291666666665,,42.587291666666665
433,2017-07-15,117.89333333333333,,117.89333333333333
433,2017-07-16,142.407625,,142.407625
433,2017-07-17,121.24108333333334,,121.24108333333334
433,2017-07-18,123.40762500000001,,123.40762500000001
433,2017-07-19,145.25791666666666,,145.25791666666666
433,2017-07-20,103.10041666666667,,103.10041666666667
433,2017-07-21,131.06779166666666,,131.06779166666666
433,2017-07-22,70.96495833333334,,70.96495833333334
433,2017-07-23,94.784,,94.784
433,2017-07-24,38.777458333333335,,38.777458333333335
433,2017-07-25,46.35425,,46.35425
433,2017-07-26,120.36079166666667,,120.36079166666667
433,2017-07-27,45.123875,,45.123875
433,2017-07-28,127.62770833333336,,127.62770833333336
433,2017-07-29,127.16545833333333,,127.16545833333333
433,2017-07-30,156.679875,,156.679875
433,2017-07-31,143.69929166666665,,143.69929166666665
433,2017-08-01,146.47670833333333,,146.47670833333333
433,2017-08-02,86.89208333333333,,86.89208333333333
433,2017-08-03,134.94675,,134.94675
433,2017-08-04,134.09254166666668,,134.09254166666668
433,2017-08-05,65.88550000000001,,65.88550000000001
433,2017-08-06,123.82175000000001,,123.82175000000001
433,2017-08-07,70.32495833333333,,70.32495833333333
433,2017-08-08,99.753,,99.753
433,2017-08-09,99.753,,99.753
433,2017-08-10,99.753,,99.753
433,2017-08-11,99.753,,99.753
433,2017-08-12,99.753,,99.753
433,2017-08-13,99.753,,99.753
433,2017-08-14,99.753,,99.753
433,2017-08-15,99.753,,99.753
433,2017-08-16,99.753,,99.753
433,2017-08-17,99.753,,99.753
433,2017-08-18,99.753,,99.753
433,2017-08-19,99.753,,99.753
433,2017-08-20,99.753,,99.753
433,2017-08-21,99.753,,99.753
433,2017-08-22,99.753,,99.753
433,2017-08-23,99.753,,99.753
433,2017-08-24,99.753,,99.753
433,2017-08-25,99.753,,99.753
433,2017-08-26,99.753,,99.753
433,2017-08-27,99.753,,99.753
433,2017-08-28,99.753,,99.753
433,2017-08-29,99.753,,99.753
433,2017-08-30,99.753,,99.753
433,2017-08-31,99.753,,99.753
433,2017-09-01,99.753,,99.753
433,2017-09-02,99.753,,99.753
433,2017-09-03,99.753,,99.753
433,2017-09-04,99.753,,99.753
433,2017-09-05,99.753,,99.753
433,2017-09-06,99.753,,99.753
433,2017-09-07,76.68979166666665,,76.68979166666665
433,2017-09-08,71.28520833333334,,71.28520833333334
433,2017-09-09,100.18895833333333,,100.18895833333333
433,2017-09-10,122.08987500000002,,122.08987500000002
433,2017-09-11,129.32125,,129.32125
433,2017-09-12,106.00150000000004,,106.00150000000004
433,2017-09-13,102.58662499999996,,102.58662499999996
433,2017-09-14,92.40308333333336,,92.40308333333336
433,2017-09-15,90.37295833333332,,90.37295833333332
433,2017-09-16,109.15716666666667,,109.15716666666667
433,2017-09-17,104.38037500000002,,104.38037500000002
433,2017-09-18,85.849,,85.849
433,2017-09-19,111.953125,,111.953125
433,2017-09-20,92.00395833333334,,92.00395833333334
433,2017-09-21,94.702,,94.702
433,2017-09-22,114.36995833333334,,114.36995833333334
433,2017-09-23,111.00541666666669,,111.00541666666669
433,2017-09-24,103.80483333333335,,103.80483333333335
433,2017-09-25,103.70970833333335,,103.70970833333335
433,2017-09-26,87.46612499999999,,87.46612499999999
433,2017-09-27,101.41166666666668,,101.41166666666668
433,2017-09-28,103.54820833333333,,103.54820833333333
433,2017-09-29,107.84783333333336,,107.84783333333336
433,2017-09-30,20.429916666666664,,20.429916666666664
433,2017-10-01,109.60050000000003,,109.60050000000003
433,2017-10-02,109.30995833333334,,109.30995833333334
433,2017-10-03,106.97800000000001,,106.97800000000001
433,2017-10-04,104.061375,,104.061375
433,2017-10-05,88.09779166666668,,88.09779166666668
433,2017-10-06,36.56266666666666,,36.56266666666666
433,2017-10-07,28.21104166666666,,28.21104166666666
433,2017-10-08,54.50529166666667,,54.50529166666667
433,2017-10-09,22.035333333333327,,22.035333333333327
433,2017-10-10,92.28916666666669,,92.28916666666669
433,2017-10-11,41.21629166666667,,41.21629166666667
433,2017-10-12,96.64995833333334,,96.64995833333334
433,2017-10-13,73.67725000000002,,73.67725000000002
433,2017-10-14,54.15629166666667,,54.15629166666667
433,2017-10-15,89.29829166666667,,89.29829166666667
433,2017-10-16,67.25145833333335,,67.25145833333335
433,2017-10-17,97.36345833333333,,97.36345833333333
433,2017-10-18,90.30875000000002,,90.30875000000002
433,2017-10-19,85.68108333333333,,85.68108333333333
433,2017-10-20,91.24358333333333,,91.24358333333333
433,2017-10-21,78.94158333333336,,78.94158333333336
433,2017-10-22,67.00145833333335,,67.00145833333335
433,2017-10-23,49.78408333333335,,49.78408333333335
433,2017-10-24,23.325624999999988,,23.325624999999988
433,2017-10-25,51.42462500000001,,51.42462500000001
433,2017-10-26,26.47537499999999,,26.47537499999999
433,2017-10-27,80.01587500000004,,80.01587500000004
433,2017-10-28,71.02091666666668,,71.02091666666668
433,2017-10-29,8.579583333333332,,8.579583333333332
433,2017-10-30,34.15633333333332,,34.15633333333332
433,2017-10-31,63.371208333333335,,63.371208333333335
433,2017-11-01,22.282749999999993,,22.282749999999993
433,2017-11-02,26.192791666666654,,26.192791666666654
433,2017-11-03,10.571708333333332,,10.571708333333332
433,2017-11-04,60.35558333333335,,60.35558333333335
433,2017-11-05,15.9155,,15.9155
433,2017-11-06,9.259249999999998,,9.259249999999998
433,2017-11-07,16.545749999999998,,16.545749999999998
433,2017-11-08,69.06133333333334,,69.06133333333334
433,2017-11-09,48.12395833333335,,48.12395833333335
433,2017-11-10,76.86216666666668,,76.86216666666668
433,2017-11-11,77.54316666666669,,77.54316666666669
433,2017-11-12,63.77379166666668,,63.77379166666668
433,2017-11-13,23.992499999999996,,23.992499999999996
433,2017-11-14,19.528999999999996,,19.528999999999996
433,2017-11-15,66.36758333333337,,66.36758333333337
433,2017-11-16,24.82320833333333,,24.82320833333333
433,2017-11-17,66.0055416666667,,66.0055416666667
433,2017-11-18,16.205916666666663,,16.205916666666663
433,2017-11-19,31.542041666666663,,31.542041666666663
433,2017-11-20,38.68254166666666,,38.68254166666666
433,2017-11-21,65.57325000000003,,65.57325000000003
433,2017-11-22,12.627874999999998,,12.627874999999998
433,2017-11-23,47.271166666666694,,47.271166666666694
433,2017-11-24,60.958708333333355,,60.958708333333355
433,2017-11-25,37.04458333333333,,37.04458333333333
433,2017-11-26,16.526374999999998,,16.526374999999998
433,2017-11-27,35.23475,,35.23475
433,2017-11-28,58.14350000000002,,58.14350000000002
433,2017-11-29,39.812749999999994,,39.812749999999994
433,2017-11-30,52.182583333333355,,52.182583333333355
433,2017-12-01,21.289416666666664,,21.289416666666664
433,2017-12-02,27.41166666666666,,27.41166666666666
433,2017-12-03,30.372708333333332,,30.372708333333332
433,2017-12-04,21.724249999999998,,21.724249999999998
433,2017-12-05,4.851916666666668,,4.851916666666668
433,2017-12-06,55.05504166666669,,55.05504166666669
433,2017-12-07,23.32845833333333,,23.32845833333333
433,2017-12-08,38.91695833333333,,38.91695833333333
433,2017-12-09,11.429916666666664,,11.429916666666664
433,2017-12-10,1.4482500000000007,,1.4482500000000007
433,2017-12-11,1.3128749999999996,,1.3128749999999996
433,2017-12-12,0.18783333333333332,,0.18783333333333332
433,2017-12-13,5.138375000000001,,5.138375000000001
433,2017-12-14,3.854458333333334,,3.854458333333334
433,2017-12-15,2.745125000000001,,2.745125000000001
433,2017-12-16,2.7347083333333337,,2.7347083333333337
433,2017-12-17,5.362374999999999,,5.362374999999999
433,2017-12-18,1.263333333333333,,1.263333333333333
433,2017-12-19,17.424791666666664,,17.424791666666664
433,2017-12-20,44.617500000000035,,44.617500000000035
433,2017-12-21,54.049750000000024,,54.049750000000024
433,2017-12-22,0.38308333333333344,,0.38308333333333344
433,2017-12-23,0.9039583333333331,,0.9039583333333331
433,2017-12-24,13.255583333333329,,13.255583333333329
433,2017-12-25,0.601875,,0.601875
433,2017-12-26,8.015916666666664,,8.015916666666664
433,2017-12-27,12.401374999999996,,12.401374999999996
433,2017-12-28,15.586249999999998,,15.586249999999998
433,2017-12-29,12.370124999999996,,12.370124999999996
433,2017-12-30,3.0992916666666677,,3.0992916666666677
433,2017-12-31,3.8388750000000003,,3.8388750000000003
433,2018-01-01,10.643499999999996,,10.643499999999996
433,2018-01-02,9.424791666666662,,9.424791666666662
433,2018-01-03,13.854583333333329,,13.854583333333329
433,2018-01-04,0.2737916666666666,,0.2737916666666666
433,2018-01-05,18.627916666666664,,18.627916666666664
433,2018-01-06,21.857041666666664,,21.857041666666664
433,2018-01-07,31.148791666666664,,31.148791666666664
433,2018-01-08,8.565416666666664,,8.565416666666664
433,2018-01-09,19.875374999999995,,19.875374999999995
433,2018-01-10,53.63308333333336,,53.63308333333336
433,2018-01-11,37.471624999999996,,37.471624999999996
433,2018-01-12,8.500249999999996,,8.500249999999996
433,2018-01-13,5.445666666666664,,5.445666666666664
433,2018-01-14,10.41958333333333,,10.41958333333333
433,2018-01-15,12.883166666666662,,12.883166666666662
433,2018-01-16,3.7269166666666678,,3.7269166666666678
433,2018-01-17,0.23470833333333327,,0.23470833333333327
433,2018-01-18,0.7607499999999998,,0.7607499999999998
433,2018-01-19,0.4039583333333335,,0.4039583333333335
433,2018-01-20,1.8155000000000008,,1.8155000000000008
433,2018-01-21,8.792041666666663,,8.792041666666663
433,2018-01-22,7.573249999999997,,7.573249999999997
433,2018-01-23,15.286791666666664,,15.286791666666664
433,2018-01-24,59.018541666666685,,59.018541666666685
433,2018-01-25,77.48462500000004,,77.48462500000004
433,2018-01-26,74.00020833333336,,74.00020833333336
433,2018-01-27,61.22683333333335,,61.22683333333335
433,2018-01-28,38.195541666666664,,38.195541666666664
433,2018-01-29,60.73475000000004,,60.73475000000004
433,2018-01-30,16.864916666666662,,16.864916666666662
433,2018-01-31,66.27370833333335,,66.27370833333335
433,2018-02-01,20.690416666666664,,20.690416666666664
433,2018-02-02,75.14083333333336,,75.14083333333336
433,2018-02-03,71.41958333333336,,71.41958333333336
433,2018-02-04,11.554999999999994,,11.554999999999994
433,2018-02-05,13.440333333333333,,13.440333333333333
433,2018-02-06,8.380499999999998,,8.380499999999998
433,2018-02-07,0.32579166666666654,,0.32579166666666654
433,2018-02-08,0.377875,,0.377875
433,2018-02-09,0.2268749999999999,,0.2268749999999999
433,2018-02-10,0.2581666666666666,,0.2581666666666666
433,2018-02-11,1.331083333333333,,1.331083333333333
433,2018-02-12,18.3935,,18.3935
433,2018-02-13,61.10708333333336,,61.10708333333336
433,2018-02-14,45.17475000000002,,45.17475000000002
433,2018-02-15,40.47675,,40.47675
433,2018-02-16,20.614874999999998,,20.614874999999998
433,2018-02-17,69.09141666666669,,69.09141666666669
433,2018-02-18,27.784041666666667,,27.784041666666667
433,2018-02-19,51.979375000000026,,51.979375000000026
433,2018-02-20,58.9300416666667,,58.9300416666667
433,2018-02-21,49.69558333333335,,49.69558333333335
433,2018-02-22,5.6774583333333295,,5.6774583333333295
433,2018-02-23,0.7086666666666664,,0.7086666666666664
433,2018-02-24,32.971666666666664,,32.971666666666664
433,2018-02-25,13.307666666666663,,13.307666666666663
433,2018-02-26,91.36220833333336,,91.36220833333336
433,2018-02-27,106.4117916666667,,106.4117916666667
433,2018-02-28,86.85704166666669,,86.85704166666669
433,2018-03-01,72.72687500000002,,72.72687500000002
433,2018-03-02,0.17483333333333337,,0.17483333333333337
433,2018-03-03,0.1955833333333333,,0.1955833333333333
433,2018-03-04,1.091458333333333,,1.091458333333333
433,2018-03-05,1.3440416666666666,,1.3440416666666666
433,2018-03-06,9.604458333333332,,9.604458333333332
433,2018-03-07,0.5263750000000001,,0.5263750000000001
433,2018-03-08,0.16958333333333334,,0.16958333333333334
433,2018-03-09,0.13825000000000004,,0.13825000000000004
433,2018-03-10,0.7242499999999997,,0.7242499999999997
433,2018-03-11,1.5158750000000005,,1.5158750000000005
433,2018-03-12,2.138375000000001,,2.138375000000001
433,2018-03-13,0.16437500000000008,,0.16437500000000008
433,2018-03-14,0.14095833333333338,,0.14095833333333338
433,2018-03-15,0.19041666666666665,,0.19041666666666665
433,2018-03-16,0.4560000000000001,,0.4560000000000001
433,2018-03-17,0.5731250000000001,,0.5731250000000001
433,2018-03-18,0.8909166666666665,,0.8909166666666665
433,2018-03-19,0.9873749999999997,,0.9873749999999997
433,2018-03-20,1.0523749999999996,,1.0523749999999996
433,2018-03-21,1.127958333333333,,1.127958333333333
433,2018-03-22,4.393541666666667,,4.393541666666667
433,2018-03-23,13.15395833333333,,13.15395833333333
433,2018-03-24,49.56541666666669,,49.56541666666669
433,2018-03-25,55.239833333333344,,55.239833333333344
433,2018-03-26,99.83625000000002,,99.83625000000002
433,2018-03-27,68.86233333333337,,68.86233333333337
433,2018-03-28,46.90658333333335,,46.90658333333335
433,2018-03-29,18.505499999999994,,18.505499999999994
433,2018-03-30,43.929875,,43.929875
433,2018-03-31,138.60187500000004,,138.60187500000004
433,2018-04-01,124.79458333333336,,124.79458333333336
433,2018-04-02,92.52891666666669,,92.52891666666669
433,2018-04-03,31.721625,,31.721625
433,2018-04-04,36.955999999999996,,36.955999999999996
433,2018-04-05,119.20333333333336,,119.20333333333336
433,2018-04-06,56.91175000000002,,56.91175000000002
433,2018-04-07,114.94816666666668,,114.94816666666668
433,2018-04-08,85.28666666666669,,85.28666666666669
433,2018-04-09,141.53933333333336,,141.53933333333336
433,2018-04-10,79.31275000000001,,79.31275000000001
433,2018-04-11,116.5211666666667,,116.5211666666667
433,2018-04-12,63.90400000000003,,63.90400000000003
433,2018-04-13,66.10708333333336,,66.10708333333336
433,2018-04-14,98.77370833333335,,98.77370833333335
433,2018-04-15,24.153916666666664,,24.153916666666664
433,2018-04-16,22.153958333333332,,22.153958333333332
433,2018-04-17,63.01583333333335,,63.01583333333335
433,2018-04-18,62.065291666666674,,62.065291666666674
433,2018-04-19,57.37266666666668,,57.37266666666668
433,2018-04-20,111.38312500000002,,111.38312500000002
433,2018-04-21,155.239875,,155.239875
433,2018-04-22,156.87533333333337,,156.87533333333337
433,2018-04-23,156.20595833333337,,156.20595833333337
433,2018-04-24,146.86233333333337,,146.86233333333337
433,2018-04-25,31.849249999999998,,31.849249999999998
433,2018-04-26,77.99770833333336,,77.99770833333336
433,2018-04-27,27.937749999999998,,27.937749999999998
433,2018-04-28,105.1331666666667,,105.1331666666667
433,2018-04-29,33.77895833333333,,33.77895833333333
433,2018-04-30,70.55233333333335,,70.55233333333335
433,2018-05-01,110.5081666666667,,110.5081666666667
433,2018-05-02,145.239875,,145.239875
433,2018-05-03,66.40912500000002,,66.40912500000002
433,2018-05-04,81.14350000000002,,81.14350000000002
433,2018-05-05,151.36495833333336,,151.36495833333336
433,2018-05-06,37.06791666666667,,37.06791666666667
433,2018-05-07,97.17216666666668,,97.17216666666668
433,2018-05-08,155.42733333333337,,155.42733333333337
433,2018-05-09,154.72675,,154.72675
433,2018-05-10,77.90137500000003,,77.90137500000003
433,2018-05-11,142.86750000000004,,142.86750000000004
433,2018-05-12,25.825833333333332,,25.825833333333332
433,2018-05-13,145.45600000000002,,145.45600000000002
433,2018-05-14,115.80233333333335,,115.80233333333335
433,2018-05-15,66.46391666666669,,66.46391666666669
433,2018-05-16,125.6512916666667,,125.6512916666667
433,2018-05-17,107.1017916666667,,107.1017916666667
433,2018-05-18,160.86750000000004,,160.86750000000004
433,2018-05-19,36.77104166666667,,36.77104166666667
433,2018-05-20,92.12791666666669,,92.12791666666669
433,2018-05-21,163.77891666666667,,163.77891666666667
433,2018-05-22,29.84408333333333,,29.84408333333333
433,2018-05-23,144.1851666666667,,144.1851666666667
433,2018-05-24,162.55495833333336,,162.55495833333336
433,2018-05-25,150.85970833333337,,150.85970833333337
433,2018-05-26,123.15916666666669,,123.15916666666669
433,2018-05-27,25.841416666666664,,25.841416666666664
433,2018-05-28,98.50283333333336,,98.50283333333336
433,2018-05-29,157.01329166666667,,157.01329166666667
433,2018-05-30,145.35962500000002,,145.35962500000002
433,2018-05-31,90.33358333333335,,90.33358333333335
433,2018-06-01,108.92475000000002,,108.92475000000002
433,2018-06-02,130.08625000000004,,130.08625000000004
433,2018-06-03,109.49762500000001,,109.49762500000001
433,2018-06-04,58.31533333333334,,58.31533333333334
433,2018-06-05,59.84141666666668,,59.84141666666668
433,2018-06-06,109.50283333333336,,109.50283333333336
433,2018-06-07,116.35962500000001,,116.35962500000001
433,2018-06-08,137.46637500000003,,137.46637500000003
433,2018-06-09,135.97683333333336,,135.97683333333336
433,2018-06-10,150.7971666666667,,150.7971666666667
433,2018-06-11,166.87004166666668,,166.87004166666668
433,2018-06-12,160.22420833333334,,160.22420833333334
433,2018-06-13,64.56533333333336,,64.56533333333336
433,2018-06-14,86.20075000000003,,86.20075000000003